Tracking 19792 objects as of 15-Jul-2019
HD Live streaming from Space Station
objects crossing your sky now

NOAA 16 DEB

Track NOAA 16 DEB now!
10-day predictions


NORAD ID: 41714
Int'l Code: 2000-055PU
Perigee: 848.3 km
Apogee: 1,020.2 km
Inclination: 99.0 °
Period: 103.6 minutes
Semi major axis: 7305 km
RCS: Unknown
Launch date: September 21, 2000
Source: United States (US)
Launch site: AIR FORCE WESTERN TEST RANGE (AFWTR)

Note: This is SATELLITE DEBRIS
aabbcc
Your satellite tracking list
Your tracking list is empty




NASA's NSSDC Master Catalog

Two Line Element Set (TLE):
1 41714U 00055PU  19193.91626069 +.00000883 +00000-0 +70551-3 0  9999
2 41714 099.0127 230.0213 0117665 314.2946 044.8608 13.90427513159654
Source of the keplerian elements: AFSPC